• In Netherlands
  • List of Countries
  • For 7 days
  • Water Temperature
  • Satellite Maps
  • Weather Map
  • Weather Widgets
  • user-avatar
    Login

    Hourly Weather Innsbruck

    Today, 20 February, Tuesday

    Time Temperature Precipitation Wind Pressure Humidity
    00:00 -13°C° 0 mm 1 mps 587 mmHg 94%
    01:00 -12°C° 0 mm 1 mps 587 mmHg 94%
    02:00 -12°C° 0 mm 1 mps 586 mmHg 94%
    03:00 -13°C° 0 mm 1 mps 586 mmHg 94%
    04:00 -13°C° 0 mm 1 mps 585 mmHg 94%
    05:00 -14°C° 0 mm 1 mps 585 mmHg 93%
    06:00 -14°C° 0 mm 1 mps 585 mmHg 93%
    07:00 -12°C° 0 mm 1 mps 586 mmHg 92%
    08:00 -11°C° 0.1 mm 1 mps 586 mmHg 90%
    09:00 -10°C° 0.1 mm 1 mps 586 mmHg 88%
    10:00 -10°C° 0.1 mm 1 mps 587 mmHg 86%
    11:00 -10°C° 0.1 mm 2 mps 587 mmHg 85%
    12:00 -9°C° 0.1 mm 2 mps 587 mmHg 83%
    13:00 -9°C° 0 mm 2 mps 587 mmHg 84%
    14:00 -9°C° 0.2 mm 2 mps 587 mmHg 85%
    15:00 -9°C° 0.2 mm 2 mps 587 mmHg 87%
    16:00 -9°C° 0.2 mm 2 mps 586 mmHg 88%
    17:00 -10°C° 0.3 mm 2 mps 586 mmHg 90%
    18:00 -12°C° 0.3 mm 2 mps 586 mmHg 93%
    19:00 -13°C° 0.3 mm 2 mps 586 mmHg 95%
    20:00 -14°C° 0.2 mm 2 mps 586 mmHg 95%
    21:00 -14°C° 0.2 mm 2 mps 586 mmHg 95%
    22:00 -15°C° 0.2 mm 2 mps 586 mmHg 95%
    23:00 -13°C° 0.1 mm 1 mps 586 mmHg 95%

    Tomorrow, 21 February, Wednesday

    Time Temperature Precipitation Wind Pressure Humidity
    00:00 -13°C° 0.1 mm 1 mps 586 mmHg 95%
    01:00 -14°C° 0.1 mm 1 mps 586 mmHg 94%
    02:00 -14°C° 0.1 mm 1 mps 586 mmHg 94%
    03:00 -15°C° 0.1 mm 1 mps 586 mmHg 94%
    04:00 -15°C° 0.1 mm 1 mps 585 mmHg 94%
    05:00 -15°C° 0.1 mm 1 mps 585 mmHg 93%
    06:00 -15°C° 0.1 mm 1 mps 585 mmHg 93%
    07:00 -15°C° 0.1 mm 1 mps 585 mmHg 93%
    08:00 -14°C° 0.1 mm 1 mps 586 mmHg 91%
    09:00 -14°C° 0.1 mm 2 mps 587 mmHg 89%
    10:00 -12°C° 0.1 mm 2 mps 588 mmHg 87%
    11:00 -12°C° 0.1 mm 2 mps 588 mmHg 86%
    12:00 -10°C° 0.1 mm 2 mps 588 mmHg 85%
    13:00 -9°C° 0.1 mm 2 mps 588 mmHg 84%
    14:00 -9°C° 0.2 mm 2 mps 588 mmHg 85%
    15:00 -9°C° 0.2 mm 2 mps 588 mmHg 86%
    16:00 -10°C° 0.2 mm 3 mps 587 mmHg 88%
    17:00 -10°C° 0.2 mm 2 mps 587 mmHg 90%
    18:00 -12°C° 0.2 mm 2 mps 587 mmHg 92%
    19:00 -13°C° 0.2 mm 2 mps 587 mmHg 95%
    20:00 -14°C° 0.1 mm 2 mps 586 mmHg 94%
    21:00 -14°C° 0.1 mm 2 mps 586 mmHg 94%
    22:00 -15°C° 0.1 mm 2 mps 586 mmHg 94%
    23:00 -13°C° 0.1 mm 1 mps 586 mmHg 94%

    Day after tomorrow, 22 February, Thursday

    Time Temperature Precipitation Wind Pressure Humidity
    00:00 -13°C° 0.1 mm 1 mps 586 mmHg 94%
    01:00 -13°C° 0.1 mm 1 mps 585 mmHg 93%
    02:00 -13°C° 0.1 mm 1 mps 585 mmHg 93%
    03:00 -13°C° 0.1 mm 1 mps 585 mmHg 92%
    04:00 -13°C° 0.1 mm 1 mps 585 mmHg 92%
    05:00 -14°C° 0.1 mm 1 mps 584 mmHg 92%
    06:00 -14°C° 0.1 mm 1 mps 584 mmHg 92%
    07:00 -14°C° 0.1 mm 1 mps 584 mmHg 92%
    08:00 -13°C° 0.1 mm 1 mps 585 mmHg 90%
    09:00 -11°C° 0.1 mm 1 mps 585 mmHg 89%
    10:00 -12°C° 0.1 mm 2 mps 586 mmHg 88%
    11:00 -10°C° 0.1 mm 2 mps 586 mmHg 87%
    12:00 -9°C° 0.1 mm 2 mps 586 mmHg 87%
    13:00 -8°C° 0.1 mm 2 mps 586 mmHg 87%
    14:00 -8°C° 0.2 mm 2 mps 586 mmHg 88%
    15:00 -8°C° 0.2 mm 2 mps 586 mmHg 88%
    16:00 -8°C° 0.2 mm 2 mps 586 mmHg 89%
    17:00 -9°C° 0.1 mm 2 mps 586 mmHg 91%
    18:00 -9°C° 0.1 mm 1 mps 586 mmHg 93%
    19:00 -10°C° 0.1 mm 1 mps 585 mmHg 94%
    20:00 -11°C° 0.1 mm 1 mps 585 mmHg 94%
    21:00 -12°C° 0.1 mm 1 mps 585 mmHg 94%
    22:00 -12°C° 0.1 mm 1 mps 585 mmHg 93%
    23:00 -13°C° 0 mm 1 mps 585 mmHg 92%

    23 February, Friday

    Time Temperature Precipitation Wind Pressure Humidity
    00:00 -13°C° 0 mm 1 mps 585 mmHg 92%
    01:00 -13°C° 0 mm 1 mps 584 mmHg 91%
    02:00 -13°C° 0 mm 1 mps 584 mmHg 90%
    03:00 -14°C° 0 mm 1 mps 584 mmHg 89%
    04:00 -14°C° 0 mm 1 mps 584 mmHg 88%
    05:00 -14°C° 0 mm 1 mps 584 mmHg 88%
    06:00 -14°C° 0 mm 1 mps 584 mmHg 87%
    07:00 -14°C° 0 mm 1 mps 584 mmHg 87%
    08:00 -12°C° 0 mm 1 mps 585 mmHg 86%
    09:00 -10°C° 0 mm 1 mps 586 mmHg 84%
    10:00 -8°C° 0 mm 1 mps 587 mmHg 82%
    11:00 -7°C° 0.1 mm 1 mps 587 mmHg 84%
    12:00 -6°C° 0.1 mm 1 mps 587 mmHg 85%
    13:00 -4°C° 0.1 mm 1 mps 588 mmHg 86%
    14:00 -4°C° 0.2 mm 1 mps 588 mmHg 87%
    15:00 -4°C° 0.2 mm 1 mps 588 mmHg 88%
    16:00 -4°C° 0.2 mm 1 mps 588 mmHg 89%
    17:00 -7°C° 0.1 mm 1 mps 588 mmHg 91%
    18:00 -8°C° 0.1 mm 1 mps 587 mmHg 93%
    19:00 -9°C° 0.1 mm 1 mps 587 mmHg 94%
    20:00 -9°C° 0 mm 1 mps 587 mmHg 93%
    21:00 -10°C° 0 mm 1 mps 587 mmHg 91%
    22:00 -10°C° 0 mm 1 mps 587 mmHg 89%
    23:00 -12°C° 0 mm 2 mps 587 mmHg 88%

    24 February, Saturday

    Time Temperature Precipitation Wind Pressure Humidity
    00:00 -10°C° 0 mm 2 mps 588 mmHg 86%
    01:00 -10°C° 0 mm 2 mps 588 mmHg 84%
    02:00 -10°C° 0 mm 2 mps 588 mmHg 84%
    03:00 -10°C° 0 mm 2 mps 587 mmHg 84%
    04:00 -12°C° 0 mm 2 mps 587 mmHg 83%
    05:00 -10°C° 0 mm 2 mps 587 mmHg 84%
    06:00 -10°C° 0 mm 2 mps 587 mmHg 85%
    07:00 -9°C° 0 mm 1 mps 588 mmHg 85%
    08:00 -8°C° 0 mm 2 mps 589 mmHg 85%
    09:00 -6°C° 0 mm 2 mps 589 mmHg 86%
    10:00 -5°C° 0 mm 2 mps 590 mmHg 86%
    11:00 -4°C° 0 mm 2 mps 590 mmHg 89%
    12:00 -4°C° 0 mm 2 mps 590 mmHg 92%
    13:00 -3°C° 0 mm 2 mps 591 mmHg 95%
    14:00 -1°C° 0 mm 1 mps 590 mmHg 94%
    15:00 -2°C° 0 mm 1 mps 590 mmHg 94%
    16:00 -2°C° 0 mm 1 mps 590 mmHg 94%
    17:00 -3°C° 0.1 mm 1 mps 590 mmHg 94%
    18:00 -4°C° 0.1 mm 1 mps 589 mmHg 95%
    19:00 -6°C° 0.1 mm 1 mps 589 mmHg 95%
    20:00 -7°C° 0.1 mm 1 mps 589 mmHg 94%
    21:00 -7°C° 0.1 mm 1 mps 589 mmHg 94%
    22:00 -8°C° 0.1 mm 1 mps 589 mmHg 94%
    23:00 -8°C° 0.1 mm 1 mps 589 mmHg 94%

    25 February, Sunday

    Time Temperature Precipitation Wind Pressure Humidity
    00:00 -9°C° 0.1 mm 1 mps 589 mmHg 94%
    01:00 -9°C° 0.1 mm 1 mps 588 mmHg 94%
    02:00 -9°C° 0.2 mm 1 mps 588 mmHg 94%
    03:00 -10°C° 0.2 mm 1 mps 588 mmHg 95%
    04:00 -10°C° 0.2 mm 1 mps 588 mmHg 95%
    05:00 -11°C° 0.2 mm 1 mps 587 mmHg 95%
    06:00 -11°C° 0.2 mm 1 mps 587 mmHg 95%
    07:00 -12°C° 0.2 mm 1 mps 587 mmHg 95%
    08:00 -14°C° 0.2 mm 2 mps 587 mmHg 94%
    09:00 -13°C° 0.2 mm 2 mps 588 mmHg 92%
    10:00 -13°C° 0.2 mm 2 mps 588 mmHg 91%
    11:00 -14°C° 0.2 mm 3 mps 588 mmHg 90%
    12:00 -14°C° 0.2 mm 3 mps 588 mmHg 90%
    13:00 -13°C° 0.2 mm 3 mps 588 mmHg 89%
    14:00 -14°C° 0.2 mm 3 mps 588 mmHg 89%
    15:00 -15°C° 0.2 mm 3 mps 587 mmHg 89%
    16:00 -16°C° 0.2 mm 3 mps 587 mmHg 89%
    17:00 -17°C° 0.1 mm 3 mps 587 mmHg 91%
    18:00 -19°C° 0.1 mm 3 mps 586 mmHg 92%
    19:00 -20°C° 0.1 mm 2 mps 586 mmHg 94%
    20:00 -21°C° 0 mm 2 mps 586 mmHg 94%
    21:00 -23°C° 0 mm 2 mps 586 mmHg 94%
    22:00 -24°C° 0 mm 2 mps 585 mmHg 94%
    23:00 -25°C° 0 mm 2 mps 585 mmHg 94%
    Show more